Current weather by "City, St" or "zip code"  
 

Current Conditions: Smyrna, Smyrna Airport, TN

Fair


38.0 F

Last Updated on Oct 31 2020, 1:56 am CDT
Humidity: 97%
Wind Speed: N 0.0 mph
Barometer 30.33 in
Dewpoint: 37.0 F
Visibility: 8.00 mi
Precip: --
Heat Index: NA
Wind Chill: NA
Current conditions at:

Smyrna, Smyrna Airport, TN (KMQY)

Lat: 36.00889 Lon: 86.52

Local Radar Image active severe weather and emergency alerts image image weather storm and storm spotter reports image weather observation monitoring service image
Local
Radar
Active
Alerts
Storm Reports Obs
Monitoring

Sign-up For Email & Text Message Weather Alert Notification Services



Advertise Here

Observation History for Smyrna, Smyrna Airport, TN


Time Wind
(mph)
Vis
(mi)
Weather Precip (in) Temperature (F) Relative
Humidity
Wind
Chill
(F)
Heat
Index
(F)
Pressure
Air Dwpt altimeter
(in)
sea level
(mb)
Rmks
1:56 am CDT N 0.0 8.00 Fair -- 38.0 37.0 97% NA NA 30.33 1028.1
12:56 am CDT N 0.0 10.00 Fair -- 39.0 37.0 93% NA NA 30.34 1028.3
11:56 pm CDT N 0.0 6.00 Fog/Mist -- 39.0 39.0 100% NA NA 30.33 1028.2
10:56 pm CDT N 0.0 10.00 Fair -- 41.0 39.0 93% NA NA 30.33 1028.1
9:56 pm CDT N 0.0 10.00 Fair -- 42.0 39.9 92% NA NA 30.32 1027.6
8:56 pm CDT N 0.0 10.00 Fair -- 43.0 39.0 86% NA NA 30.32 1027.6
7:56 pm CDT N 0.0 10.00 Fair -- 44.0 39.0 83% NA NA 30.31 1027.3
6:56 pm CDT NE 4.6 10.00 Fair -- 49.0 37.9 66% 47 NA 30.30 1026.8
5:56 pm CDT N 5.8 10.00 Fair -- 50.0 37.0 61% 48 NA 30.28 1026.3
4:56 pm CDT N 6.9 10.00 Fair -- 54.0 37.0 53% 52 NA 30.28 1026.3
3:56 pm CDT N 8.1 10.00 Fair -- 54.0 37.0 53% 52 NA 30.28 1026.1
2:56 pm CDT NW 10.4 10.00 Fair -- 54.0 39.0 57% 51 NA 30.27 1026.0
1:56 pm CDT NW 9.2 10.00 Partly Cloudy -- 53.0 39.0 59% 50 NA 30.28 1026.3
12:56 pm CDT N 8.1 10.00 Mostly Cloudy -- 50.0 39.0 66% 47 NA 30.29 1026.7
11:56 am CDT NW 11.5 10.00 Mostly Cloudy -- 49.0 39.9 71% 44 NA 30.31 1027.1
10:56 am CDT N 10.4 10.00 Overcast -- 48.0 39.9 74% 43 NA 30.30 1027.0
9:56 am CDT NW 10.4 10.00 Overcast -- 47.0 41.0 80% 42 NA 30.29 1026.4
8:56 am CDT N 12.7 10.00 Overcast -- 47.0 41.0 80% 41 NA 30.27 1025.6
7:56 am CDT N 9.2 10.00 Overcast -- 47.0 41.0 80% 43 NA 30.22 1024.1
6:56 am CDT NW 9.2 10.00 Overcast -- 46.0 42.1 86% 41 NA 30.18 1023.0
5:56 am CDT N 11.5 10.00 Overcast -- 48.0 43.0 83% 43 NA 30.15 1021.6
4:56 am CDT N 10.4 10.00 Overcast -- 48.0 43.0 83% 43 NA 30.12 1020.5
3:56 am CDT N 13.8 G 20.7 10.00 Overcast -- 49.0 44.1 83% 44 NA 30.09 1019.7
2:56 am CDT N 10.4 10.00 Overcast -- 50.0 44.1 80% 46 NA 30.07 1018.7

Regional Weather Observation


Smyrna, Smyrna Airport, TN (KMQY)

Fair
38.0 F

Bowling Green, Bowling Green-Warren County Regional Airport, KY (KBWG)

Fair
38.0 F

Clarksville Outlaw Field, TN (KCKV)

Fair
38.0 F

Fort Campbell U. S. Army Airfield, KY (KHOP)

Fair
40.0 F

Columbia / Maury County, TN (KMRC)

Fog/Mist
37.0 F

Tullahoma Regional Airport/William Northern Field, TN (KTHA)

Fair
39.0 F